Location: Blanot
(47.1713°N, 4.2340°E)
Time: 21:05:18
(UTC+00:00)

Cosmos 2322 Rocket - Pass Details

Date: 14 July 2020
Orbit: 832 x 851 km, 71.0° (Epoch: 14 August)

Event Time Altitude Azimuth Distance (km) Brightness Sun altitude
Rises 02:43:13 0° 336° (NNW) 3,405 5.7 -10.8°
Reaches altitude 10° 02:45:48 10° 343° (NNW) 2,470 5.1 -10.5°
Maximum altitude 02:51:12 43° 55° (NE) 1,170 3.6 -9.9°
Drops below altitude 10° 02:56:35 10° 126° (SE) 2,468 4.7 -9.3°
Sets 02:59:09 0° 133° (SE) 3,402 5.4 -9.0°
